Regional Weather Roundup
Issued by NWS Newport/Morehead, NC

Current Version | Previous Version | Graphics & Text | Print | Product List | Glossary On
Versions: 1 2 3 4 5 6 7 8 9 10 11 12 13 14 15 16 17 18 19 20 21 22 23 24 25 26 27 28 29 30 31 32 33 34 35 36 37 38 39 40 41 42 43 44 45 46 47
000 ASUS42 KMHX 221725 RWRMHX WEATHER ROUNDUP FOR EASTERN NORTH CAROLINA NATIONAL WEATHER SERVICE NEWPORT/MOREHEAD CITY NC 100 PM EDT SUN APR 22 2018 NOTE: "FAIR" INDICATES FEW OR NO CLOUDS BELOW 12,000 FEET WITH NO SIGNIFICANT WEATHER AND/OR OBSTRUCTIONS TO VISIBILITY NCZ015>017-031-032-045>047-102-103-221800- NORTH COAST CITY SKY/WX TMP DP RH WIND PRES REMARKS EDENTON FAIR 67 43 41 E8 30.39F ELIZABETH CITY FAIR 64 36 35 SE10 30.40F KITTY HAWK FAIR 57 37 47 NE3 30.40F MANTEO FAIR 59 33 36 E7 30.41F $$ NCZ045>047-081-094-103-104-221800- CENTRAL COAST CITY SKY/WX TMP DP RH WIND PRES REMARKS FRISCO FAIR 64 35 34 NE8 30.40F $$ NCZ095-097-098-100-101-221800- SOUTHERN COAST CITY SKY/WX TMP DP RH WIND PRES REMARKS BEAUFORT FAIR 66 42 41 SE12 30.38F CEDAR ISLAND NOT AVBL JACKSONVILLE FAIR 69 40 34 E7 30.36S PINEY ISLAND NOT AVBL WILMINGTON FAIR 68 47 46 E12G20 30.36S $$ NCZ011>013-027>030-043-044-078>080-089-090>093-098-221800- COASTAL PLAIN CITY SKY/WX TMP DP RH WIND PRES REMARKS AHOSKIE FAIR 66 38 36 CALM 30.36F CLINTON FAIR 70 39 33 CALM 30.35F ELIZABETHTOWN FAIR 71 41 32 MISG 30.33F GOLDSBORO PTSUNNY 69 38 31 S9 30.34F GREENVILLE FAIR 68 37 32 E3 30.36F HAVELOCK MOSUNNY 69 43 38 NE14 30.37F KENANSVILLE FAIR 70 37 30 E6 30.35F KINSTON FAIR 68 36 30 CALM 30.36F NEW BERN FAIR 67 42 40 SE9 30.39F RICHLANDS FAIR 70 42 36 SE7 30.36F ROCKY MOUNT FAIR 67 40 37 VRB5 30.36F WASHINGTON FAIR 67 35 29 S8 30.37F WHITEVILLE PTSUNNY 70 47 43 SE8 30.32F $$ AMZ130-135-150-152-154-156-158-170-250-252-270-ANZ085-086-088-633-658-670-221800- MARINE OBSERVATIONS STATION/POSITION TIME TEMP WIND PRES WAVE SWELL AIR SEA DIR/SP/G HT/PER HT/PER (UTC) (F) (DEG/KT/KT) (MB) (FT/S) (FT/S) CHESAPEAKE LIGHT NOT AVBL 64 E VA BEACH 1650 50 50 40/ 6/ 6 1030.8 2/ 8 2/ 8 DUCK 1700 54 53 70/ 7/ 8 1029.3 2 E DUCK 1700 54 N/A 1/13 OREGON INLET 1700 56 40/ 9/ 11 1029.5 13E OREGON INLT 1648 52 N/A 2/14 2/14 HATTERAS CG 1700 58 61 30/ 8/ 13 1029.2 DIAMOND BUOY 1710 59 74 20/ 14/ 17 1029.2 CAPE LOOKOUT 1700 60/ 13/ 14 1029.2 BEAUFORT LAB 1700 63 63 110/ 10/ 13 1028.7 30 SE NEW RVR IN 1708 63 65 80/ 14/ 17 1028.4 30 SE NEW RVR IN 1700 65 N/A 3/ 4 27 SE WRIGHTSVLE 1708 64 65 90/ 16/ 21 1027.8 5 SE WRIGHTSVLE 1708 62 61 90/ 12/ 16 1027.7 225 S CAPE HAT 1710 66 72 60/ 12/ 16 1026.3 41 SE CHARLESTON 1710 68 67 110/ 14/ 16 1025.4 $$

USA.gov is the U.S. government's official web portal to all federal, state and local government web resources and services.